sat.trackr.live / text

‹ back to catalog

STARLINK-1347

NORAD 45586 · 2020-025BH

PAYLOAD ACTIVE UNKNOWN

§ Identity

Operator
Country
US
Launch date
2020-04-22
Launch site
AFETR
Launch vehicle
Mass (kg)
RCS (m²)

Purposes: comms

External: N2YO · Heavens-Above · Gunter

§ Orbital elements

Epoch: 2026-09-13T01:16:06.940704Z

Period
91.05 min
Inclination
53.0334°
Eccentricity
0.0005333
Mean motion
15.81566304 rev/d
Perigee alt
322.4 km
Apogee alt
329.6 km
Semi-major
6,704.1 km
B*
4.2773e-4
RAAN
184.6503°
Arg perigee
95.9027°
Mean anomaly
264.2602°
Rev number
35,557

§ Raw data

STARLINK-13471 45586U 20025BH  26256.05285811  .00087430  00000+0  42773-3 0  99952 45586  53.0334 184.6503 0005333  95.9027 264.2602 15.81566304355577

JSON: /api/v1/satellites/45586 · /tle

For live sub-satellite position, see the globe view (requires WebGL).

§ Visibility from observer

Set your observer location to see the next 7 days of passes ≥ 10°. The values pass through the URL so the page stays shareable.

No JS? Fill the form by hand. The geolocation button needs JavaScript.